FW4751 Weather Reports


time (UTC)temp
F
wind
direction
speed
knots
gust
knots
rain 1hr
in
rain 24hr
in
rain mn
in
humidity
%
barometer
mb
20260901024030 64 315 0.9 3.5 0.00 0.00 0.00 68 1013.7
20260901023524 64 315 0.9 3.5 0.00 0.00 0.00 68 1013.7
20260901023024 65 315 0.9 1.7 0.00 0.00 0.00 67 1013.7
20260901022503 65 338 0.9 1.7 0.00 0.00 0.00 67 1013.6
20260901022024 65 338 0.9 1.7 0.00 0.00 0.00 67 1013.7
20260901021524 66 293 0.9 2.6 0.00 0.00 0.00 66 1013.6
20260901021004 66 338 0.9 3.5 0.00 0.00 0.00 66 1013.5
20260901020504 66 315 0.9 1.7 0.00 0.00 0.00 66 1013.5
20260901020044 67 315 0.9 2.6 0.00 0.00 0.00 65 1013.5
20260901015509 67 338 0.9 3.5 0.00 0.00 0.00 66 1013.6
20260901015004 67 338 0.9 1.7 0.00 0.00 0.00 65 1013.5
20260901014503 67 338 1.7 3.5 0.00 0.00 0.00 64 1013.6
20260901014008 68 315 0.9 3.5 0.00 0.00 0.00 65 1013.4
20260901013504 68 338 0.9 4.3 0.00 0.00 0.00 65 1013.4
20260901013009 67 0 0.9 2.6 0.00 0.00 0.00 65 1013.6
20260901012504 67 315 0.9 3.5 0.00 0.00 0.00 65 1013.5
20260901012003 67 23 1.7 3.5 0.00 0.00 0.00 65 1013.4
20260901011508 67 23 1.7 5.2 0.00 0.00 0.00 65 1013.5
20260901011004 68 0 1.7 5.2 0.00 0.00 0.00 64 1013.5
20260901010503 68 0 1.7 6.1 0.00 0.00 0.00 64 1013.6
20260901010004 68 315 0.9 5.2 0.00 0.00 0.00 65 1013.5
20260901005528 68 0 1.7 4.3 0.00 0.00 0.00 65 1013.5
20260901005004 68 0 1.7 5.2 0.00 0.00 0.00 66 1013.4
20260901004509 68 23 2.6 8.7 0.00 0.00 0.00 65 1013.5
20260901004004 68 315 2.6 8.7 0.00 0.00 0.00 64 1013.5
20260901003509 68 315 2.6 6.1 0.00 0.00 0.00 64 1013.3
20260901003006 68 338 2.6 7.8 0.00 0.00 0.00 62 1013.3
20260901002523 69 0 2.6 7.0 0.00 0.00 0.00 61 1013.3
20260901002003 69 338 1.7 7.8 0.00 0.00 0.00 62 1013.2
20260901001508 69 338 1.7 7.0 0.00 0.00 0.00 61 1013.4
20260901001004 69 0 2.6 5.2 0.00 0.00 0.00 60 1013.2
20260901000528 70 338 2.6 8.7 0.00 0.00 0.00 60 1013.4
20260901000009 70 338 1.7 6.1 0.00 0.00 0.00 60 1013.3
20260831235509 69 338 1.7 7.0 0.00 0.00 0.00 61 1013.3
20260831235008 69 338 1.7 5.2 0.00 0.00 0.00 61 1013.4
20260831234504 69 0 1.7 5.2 0.00 0.00 0.00 61 1013.4
20260831234028 69 0 2.6 8.7 0.00 0.00 0.00 60 1013.4
20260831233508 70 338 2.6 6.1 0.00 0.00 0.00 60 1013.4
20260831233009 70 0 2.6 8.7 0.00 0.00 0.00 61 1013.4
20260831232503 70 0 2.6 6.1 0.00 0.00 0.00 61 1013.4
20260831232008 70 0 1.7 6.1 0.00 0.00 0.00 60 1013.6
20260831231508 70 0 2.6 7.0 0.00 0.00 0.00 60 1013.6
20260831231049 71 338 2.6 7.8 0.00 0.00 0.00 59 1013.4
20260831230508 71 23 2.6 7.0 0.00 0.00 0.00 59 1013.6
20260831230003 72 0 1.7 6.1 0.00 0.00 0.00 59 1013.6
20260831225528 72 23 2.6 6.1 0.00 0.00 0.00 59 1013.6
20260831225023 72 315 1.7 4.3 0.00 0.00 0.00 60 1013.5
20260831224508 71 23 1.7 4.3 0.00 0.00 0.00 60 1013.7
20260831224008 71 23 1.7 4.3 0.00 0.00 0.00 60 1013.7
20260831223543 71 23 2.6 6.1 0.00 0.00 0.00 60 1013.7
20260831223009 71 338 1.7 4.3 0.00 0.00 0.00 60 1013.7
20260831222528 71 338 1.7 4.3 0.00 0.00 0.00 60 1013.7
20260831222008 71 23 2.6 7.8 0.00 0.00 0.00 60 1013.8
20260831221508 71 338 2.6 7.8 0.00 0.00 0.00 60 1013.8
20260831221008 71 338 1.7 7.0 0.00 0.00 0.00 60 1013.9
20260831220509 72 0 1.7 6.1 0.00 0.00 0.00 60 1013.9
20260831220006 72 315 1.7 4.3 0.00 0.00 0.00 59 1014.0
20260831215528 72 338 2.6 6.1 0.00 0.00 0.00 58 1014.2
20260831215003 73 338 1.7 6.1 0.00 0.00 0.00 58 1014.2
20260831214503 73 0 1.7 6.1 0.00 0.00 0.00 58 1014.1
20260831214003 74 338 1.7 6.1 0.00 0.00 0.00 57 1014.2
20260831213528 74 315 1.7 4.3 0.00 0.00 0.00 57 1014.3
20260831213008 73 315 1.7 4.3 0.00 0.00 0.00 58 1014.3
20260831212508 72 338 1.7 6.1 0.00 0.00 0.00 59 1014.3
20260831212003 72 315 1.7 4.3 0.00 0.00 0.00 59 1014.4
20260831211508 72 0 1.7 5.2 0.00 0.00 0.00 59 1014.5
20260831210508 73 45 1.7 6.1 0.00 0.00 0.00 57 1014.4
20260831210008 74 315 1.7 5.2 0.00 0.00 0.00 56 1014.5
20260831205503 74 338 0.9 4.3 0.00 0.00 0.00 56 1014.6
20260831205028 75 225 1.7 5.2 0.00 0.00 0.00 56 1014.6
20260831204503 74 225 0.9 3.5 0.00 0.00 0.00 57 1014.5
20260831204010 74 315 1.7 4.3 0.00 0.00 0.00 57 1014.5
20260831203510 73 248 1.7 4.3 0.00 0.00 0.00 59 1014.6
20260831203005 72 225 0.9 1.7 0.00 0.00 0.00 61 1014.6
20260831202505 71 45 1.7 5.2 0.00 0.00 0.00 62 1014.6
20260831202010 71 315 1.7 3.5 0.00 0.00 0.00 62 1014.6
20260831201510 71 315 1.7 4.3 0.00 0.00 0.00 62 1014.6
20260831201030 71 23 1.7 5.2 0.00 0.00 0.00 63 1014.7
20260831200505 71 0 1.7 4.3 0.00 0.00 0.00 62 1014.6
20260831200010 71 338 0.9 5.2 0.00 0.00 0.00 63 1014.7
20260831195509 70 315 0.9 3.5 0.00 0.00 0.00 64 1014.7
20260831195010 70 315 0.9 3.5 0.00 0.00 0.00 64 1014.8
20260831194510 70 135 0.9 1.7 0.00 0.00 0.00 65 1014.9
20260831194010 70 45 0.9 1.7 0.00 0.00 0.00 64 1015.0
20260831193510 70 45 0.9 2.6 0.00 0.00 0.00 64 1015.1
20260831193005 70 113 0.9 2.6 0.00 0.00 0.00 65 1015.2
20260831192505 69 135 0.9 2.6 0.00 0.00 0.00 65 1015.2
20260831192010 70 113 0.9 3.5 0.00 0.00 0.00 64 1015.3
20260831191550 70 135 0.9 2.6 0.00 0.00 0.00 64 1015.3
20260831191009 70 113 0.9 2.6 0.00 0.00 0.00 64 1015.4
20260831190510 70 135 0.9 2.6 0.00 0.00 0.00 63 1015.2
20260831190010 70 135 0.9 2.6 0.00 0.00 0.00 61 1015.4
20260831185509 70 225 0.9 1.7 0.00 0.00 0.00 62 1015.2
20260831185010 70 45 0.9 2.6 0.00 0.00 0.00 63 1015.3
20260831184509 69 135 0.9 1.7 0.00 0.00 0.00 64 1015.4
20260831184010 68 0.0 1.7 0.00 0.00 0.00 64 1015.5
20260831183510 68 113 0.9 1.7 0.00 0.00 0.00 65 1015.5
20260831183010 67 45 0.9 1.7 0.00 0.00 0.00 66 1015.4
20260831182510 67 0.0 1.7 0.00 0.00 0.00 67 1015.4
20260831182010 67 0.0 1.7 0.00 0.00 0.00 67 1015.4
20260831181510 67 45 0.9 1.7 0.00 0.00 0.00 67 1015.4
20260831181024 67 0.0 1.7 0.00 0.00 0.00 67 1015.4
20260831180529 66 0.0 0.9 0.00 0.00 0.00 68 1015.5
20260831180009 66 0.0 1.7 0.00 0.00 0.00 69 1015.4
20260831175505 65 338 0.9 1.7 0.00 0.00 0.00 69 1015.5
20260831175009 65 225 0.9 2.6 0.00 0.00 0.00 69 1015.4
20260831174510 65 315 0.9 1.7 0.00 0.00 0.00 69 1015.5
20260831174009 65 270 0.9 1.7 0.00 0.00 0.00 70 1015.5
20260831173510 64 0.0 0.9 0.00 0.00 0.00 71 1015.5
20260831173004 64 23 0.9 2.6 0.00 0.00 0.00 71 1015.6
20260831172505 64 0.0 0.9 0.00 0.00 0.00 72 1015.5
20260831172004 64 0.0 1.7 0.00 0.00 0.00 72 1015.6
20260831171509 63 0 0.9 1.7 0.00 0.00 0.00 72 1015.5
20260831171029 63 45 0.9 1.7 0.00 0.00 0.00 72 1015.4
20260831170509 63 0 0.9 1.7 0.00 0.00 0.00 73 1015.4
20260831170025 63 225 0.9 1.7 0.00 0.00 0.00 73 1015.4
20260831165505 63 135 0.9 1.7 0.00 0.00 0.00 74 1015.2
20260831165005 63 270 0.9 1.7 0.00 0.00 0.00 75 1015.2
20260831164509 62 158 0.9 1.7 0.00 0.00 0.00 76 1015.1
20260831164009 62 270 0.9 1.7 0.00 0.00 0.00 77 1015.1
20260831163504 61 0.0 0.9 0.00 0.00 0.00 78 1015.2
20260831163004 61 0.0 0.9 0.00 0.00 0.00 79 1015.1
20260831162507 60 0.0 0.9 0.00 0.00 0.00 81 1015.0
20260831162004 60 0.0 0.9 0.00 0.00 0.00 81 1015.0
20260831161530 60 0.0 0.9 0.00 0.00 0.00 83 1015.0
20260831161009 60 315 0.9 1.7 0.00 0.00 0.00 84 1014.9
20260831160509 59 0.0 0.9 0.00 0.00 0.00 86 1014.9
20260831160004 59 0.0 0.9 0.00 0.00 0.00 86 1014.9
20260831155509 59 315 0.9 1.7 0.00 0.00 0.00 87 1015.0
20260831155004 58 0.0 0.9 0.00 0.00 0.00 88 1014.9
20260831154524 58 0.0 1.7 0.00 0.00 0.00 88 1015.0
20260831154004 58 248 0.9 1.7 0.00 0.00 0.00 88 1014.9
20260831153504 58 0.0 0.9 0.00 0.00 0.00 89 1014.9
20260831153004 57 315 0.9 1.7 0.00 0.00 0.00 89 1014.9
20260831152504 57 0.0 1.7 0.00 0.00 0.00 89 1014.8
20260831152004 57 0.0 0.9 0.00 0.00 0.00 89 1015.0
20260831151504 57 0.0 0.9 0.00 0.00 0.00 89 1015.0
20260831151024 56 0.0 1.7 0.00 0.00 0.00 89 1014.9
20260831150529 56 0.0 0.9 0.00 0.00 0.00 89 1014.9
20260831150004 56 0.0 0.9 0.00 0.00 0.00 89 1014.8
20260831145509 55 0.0 0.9 0.00 0.00 0.00 88 1014.8
20260831145024 55 0.0 0.9 0.00 0.00 0.00 88 1014.7
20260831144504 55 0.0 0.9 0.00 0.00 0.00 88 1014.6
20260831144004 55 0.0 0.9 0.00 0.00 0.00 87 1014.6
20260831143504 55 0.0 0.9 0.00 0.00 0.00 87 1014.5
20260831143004 55 0.0 0.9 0.00 0.00 0.00 86 1014.5
20260831142504 55 0.0 0.9 0.00 0.00 0.00 86 1014.3
20260831142004 55 0.0 0.9 0.00 0.00 0.00 86 1014.3
20260831141504 55 0.0 0.9 0.00 0.00 0.00 85 1014.2
20260831141005 55 0.0 0.9 0.00 0.00 0.00 85 1014.2
20260831140524 55 0.0 0.9 0.00 0.00 0.00 85 1014.1
20260831140004 55 0.0 0.9 0.00 0.00 0.00 84 1014.3
20260831135504 55 0.0 0.9 0.00 0.00 0.00 84 1014.1
20260831135004 55 0.0 0.9 0.00 0.00 0.00 84 1014.0
20260831134504 55 0.0 0.9 0.00 0.00 0.00 84 1014.0
20260831134004 56 0.0 0.9 0.00 0.00 0.00 84 1014.0
20260831133504 56 0.0 0.9 0.00 0.00 0.00 83 1013.9
20260831133004 56 0.0 0.9 0.00 0.00 0.00 83 1013.8
20260831132504 56 0.0 0.9 0.00 0.00 0.00 83 1013.9
20260831132024 56 0.0 0.9 0.00 0.00 0.00 83 1013.8
20260831131504 56 0.0 0.9 0.00 0.00 0.00 83 1013.7
20260831131009 56 0.0 0.9 0.00 0.00 0.00 83 1013.7
20260831130504 57 0.0 1.7 0.00 0.00 0.00 83 1013.7
20260831130004 57 0.0 0.9 0.00 0.00 0.00 82 1013.6
20260831125504 57 0.0 0.9 0.00 0.00 0.00 82 1013.6
20260831125004 57 315 0.9 1.7 0.00 0.00 0.00 82 1013.7
20260831124509 57 0.0 1.7 0.00 0.00 0.00 82 1013.6
20260831124004 57 315 0.9 2.6 0.00 0.00 0.00 82 1013.6
20260831123504 58 0.0 0.9 0.00 0.00 0.00 82 1013.5
20260831123009 58 270 0.9 1.7 0.00 0.00 0.00 82 1013.3
20260831122504 58 248 0.9 1.7 0.00 0.00 0.00 82 1013.3
20260831122004 58 248 0.9 2.6 0.00 0.00 0.00 82 1013.3
20260831121529 58 270 0.9 2.6 0.00 0.00 0.00 83 1013.2
20260831121028 58 248 1.7 3.5 0.00 0.00 0.00 83 1013.1
20260831120504 58 248 0.9 1.7 0.00 0.00 0.00 84 1013.1
20260831120004 59 0.0 2.6 0.00 0.00 0.00 85 1013.1
20260831115504 59 0.0 1.7 0.00 0.00 0.00 86 1013.2
20260831115024 59 270 0.9 2.6 0.00 0.00 0.00 86 1013.0
20260831114509 59 248 0.9 2.6 0.00 0.00 0.00 87 1013.0
20260831114029 59 293 0.9 1.7 0.00 0.00 0.00 87 1013.0
20260831113529 59 0.0 1.7 0.00 0.00 0.00 88 1012.9
20260831113024 59 0.0 1.7 0.00 0.00 0.00 88 1012.9
20260831112524 59 0.0 1.7 0.00 0.00 0.00 88 1012.9
20260831112024 59 0.0 0.9 0.00 0.00 0.00 89 1012.9
20260831111503 59 0.0 0.9 0.00 0.00 0.00 89 1013.0
20260831111004 59 0.0 0.9 0.00 0.00 0.00 89 1013.0
20260831110503 59 0.0 1.7 0.00 0.00 0.00 89 1012.9
20260831110008 59 0.0 1.7 0.00 0.00 0.00 89 1012.9
20260831105504 59 0.0 1.7 0.00 0.00 0.00 89 1012.9
20260831105009 59 0.0 1.7 0.00 0.00 0.00 90 1012.8
20260831104509 59 0.0 0.9 0.00 0.00 0.00 90 1012.8
20260831104008 59 0.0 1.7 0.00 0.00 0.00 90 1012.7
20260831103529 58 0.0 1.7 0.00 0.00 0.00 90 1012.7
20260831103024 58 0.0 0.9 0.00 0.00 0.00 90 1012.6
20260831102503 58 0.0 1.7 0.00 0.00 0.00 90 1012.7
20260831102009 58 0.0 0.9 0.00 0.00 0.00 90 1012.7
20260831101503 58 0.0 0.9 0.00 0.00 0.00 90 1012.7
20260831101008 58 0.0 1.7 0.00 0.00 0.00 90 1012.7
20260831100503 58 0.0 0.9 0.00 0.00 0.00 89 1012.6
20260831100009 58 0.0 0.9 0.00 0.00 0.00 89 1012.7
20260831095504 58 0.0 0.9 0.00 0.00 0.00 89 1012.6
20260831095023 58 0.0 0.9 0.00 0.00 0.00 89 1012.7
20260831094549 58 0.0 0.9 0.00 0.00 0.00 89 1012.7
20260831094008 58 0.0 0.9 0.00 0.00 0.00 89 1012.7
20260831093508 58 0.0 0.9 0.00 0.00 0.00 89 1012.7
20260831093023 58 0.0 0.9 0.00 0.00 0.00 89 1012.7
20260831092503 58 0.0 0.9 0.00 0.00 0.00 89 1012.8
20260831092008 58 0.0 0.0 0.00 0.00 0.00 89 1012.7
20260831091508 58 0.0 0.9 0.00 0.00 0.00 89 1012.8
20260831091003 58 0.0 0.9 0.00 0.00 0.00 89 1012.7
20260831090503 58 0.0 0.9 0.00 0.00 0.00 89 1012.8
20260831090004 58 0.0 0.9 0.00 0.00 0.00 89 1012.8
20260831085508 58 0.0 0.9 0.00 0.00 0.00 89 1012.9
20260831085008 58 0.0 0.9 0.00 0.00 0.00 89 1012.8
20260831084509 58 0.0 0.9 0.00 0.00 0.00 89 1012.8
20260831084003 58 0.0 0.9 0.00 0.00 0.00 88 1012.8
20260831083503 58 0.0 0.9 0.00 0.00 0.00 88 1012.8
20260831083003 58 0.0 0.9 0.00 0.00 0.00 88 1012.7
20260831082508 58 0.0 0.9 0.00 0.00 0.00 88 1012.8
20260831082003 58 0.0 0.9 0.00 0.00 0.00 88 1013.0
20260831081529 58 0.0 0.9 0.00 0.00 0.00 88 1013.1
20260831081008 58 0.0 0.9 0.00 0.00 0.00 88 1013.0
20260831080509 58 0.0 0.9 0.00 0.00 0.00 88 1013.1
20260831080003 58 0.0 0.9 0.00 0.00 0.00 88 1013.1
20260831075509 58 0.0 0.9 0.00 0.00 0.00 87 1013.1
20260831075008 57 0.0 0.9 0.00 0.00 0.00 87 1013.1
20260831074503 57 0.0 0.9 0.00 0.00 0.00 87 1013.1
20260831074003 57 0.0 0.9 0.00 0.00 0.00 86 1013.2
20260831073508 58 0.0 0.9 0.00 0.00 0.00 86 1013.1
20260831073008 58 0.0 0.9 0.00 0.00 0.00 86 1013.1
20260831072543 58 0.0 0.9 0.00 0.00 0.00 86 1013.1
20260831072023 58 0.0 0.9 0.00 0.00 0.00 86 1013.0
20260831071503 58 0.0 0.9 0.00 0.00 0.00 86 1013.1
20260831071008 58 0.0 0.9 0.00 0.00 0.00 86 1013.1
20260831070503 58 0.0 0.9 0.00 0.00 0.00 86 1013.1
20260831070005 58 0.0 0.9 0.00 0.00 0.00 86 1013.0
20260831065503 59 0.0 0.9 0.00 0.00 0.00 85 1013.2
20260831065048 59 0.0 0.9 0.00 0.00 0.00 85 1013.0
20260831064503 59 0.0 0.9 0.00 0.00 0.00 85 1013.1
20260831064008 59 0.0 1.7 0.00 0.00 0.00 85 1013.1
20260831063503 59 0.0 0.9 0.00 0.00 0.00 85 1013.2
20260831063003 59 0.0 0.9 0.00 0.00 0.00 85 1013.2
20260831062509 59 0.0 0.9 0.00 0.00 0.00 84 1013.2
20260831062008 59 0.0 0.9 0.00 0.00 0.00 84 1013.2
20260831061505 59 0.0 0.9 0.00 0.00 0.00 83 1013.3
20260831061005 59 0.0 0.9 0.00 0.00 0.00 83 1013.2
20260831060510 59 0.0 0.9 0.00 0.00 0.00 83 1013.2
20260831060003 59 0.0 0.9 0.00 0.00 0.00 82 1013.3
20260831055525 59 0.0 0.9 0.00 0.00 0.00 82 1013.3
20260831055005 59 0.0 0.9 0.00 0.00 0.00 81 1013.3
20260831054510 59 0.0 1.7 0.00 0.00 0.00 81 1013.3
20260831054005 59 0.0 0.9 0.00 0.00 0.00 81 1013.3
20260831053505 59 0.0 0.9 0.00 0.00 0.00 80 1013.3
20260831053006 59 0.0 1.7 0.00 0.00 0.00 79 1013.3
20260831052505 60 0.0 0.9 0.00 0.00 0.00 79 1013.2
20260831052005 60 0.0 0.9 0.00 0.00 0.00 79 1013.3
20260831051509 60 0.0 0.9 0.00 0.00 0.00 79 1013.2
20260831051009 60 0.0 0.9 0.00 0.00 0.00 79 1013.2
20260831050505 60 0.0 1.7 0.00 0.00 0.00 79 1013.3
20260831050025 60 0.0 0.9 0.00 0.00 0.00 79 1013.2
20260831045505 60 0.0 0.9 0.00 0.00 0.00 78 1013.2
20260831045010 61 0.0 1.7 0.00 0.00 0.00 78 1013.2
20260831044509 61 23 0.9 1.7 0.00 0.00 0.00 78 1013.1
20260831044005 61 0.0 1.7 0.00 0.00 0.00 77 1013.1
20260831043525 61 23 0.9 1.7 0.00 0.00 0.00 76 1013.1
20260831043005 61 0 0.9 1.7 0.00 0.00 0.00 76 1013.1
20260831042505 61 45 0.9 1.7 0.00 0.00 0.00 76 1013.1
20260831042005 62 45 0.9 1.7 0.00 0.00 0.00 76 1013.1
20260831041504 62 23 0.9 1.7 0.00 0.00 0.00 76 1013.0
20260831041010 62 23 0.9 1.7 0.00 0.00 0.00 76 1012.9
20260831040505 62 23 0.9 2.6 0.00 0.00 0.00 76 1012.9
20260831040004 62 0 0.9 3.5 0.00 0.00 0.00 75 1012.7
20260831035524 62 23 0.9 3.5 0.00 0.00 0.00 75 1012.7
20260831035004 62 45 0.9 2.6 0.00 0.00 0.00 74 1012.7
20260831034504 63 23 0.9 2.6 0.00 0.00 0.00 73 1012.5
20260831034004 63 23 0.9 2.6 0.00 0.00 0.00 73 1012.5
20260831033505 63 23 0.9 2.6 0.00 0.00 0.00 73 1012.5
20260831033025 63 23 0.9 2.6 0.00 0.00 0.00 74 1012.4
20260831032505 63 23 0.9 1.7 0.00 0.00 0.00 74 1012.3
20260831032005 64 0.0 1.7 0.00 0.00 0.00 75 1012.3
20260831031505 64 0.0 1.7 0.00 0.00 0.00 75 1012.2
20260831031005 64 0.0 1.7 0.00 0.00 0.00 74 1012.3
20260831030504 64 0.0 0.9 0.00 0.00 0.00 74 1012.1
20260831030005 64 0.0 1.7 0.00 0.00 0.00 74 1012.1
20260831025545 65 0.0 1.7 0.00 0.00 0.00 73 1012.2
20260831025005 65 23 0.9 1.7 0.00 0.00 0.00 73 1012.1
20260831024504 65 45 0.9 1.7 0.00 0.00 0.00 73 1012.1